{"data":{"norad_id":59216,"intl_designator":"2024-046R","name":"STARLINK-31417","alt_names":[],"object_type":"PAYLOAD","status":"ACTIVE","operator":null,"country":"US","launch_date":"2024-03-11","launch_site_code":"AFWTR","launch_vehicle":null,"mission":null,"orbit_class":"UNKNOWN","rcs_meters":null,"size_class":null,"mass_kg":null,"dimensions":null,"purposes":["comms"],"wikipedia_slug":null,"has_3d_model":false,"image_url":null,"decayed_at":null,"tle_current":{"epoch":"2026-05-25T00:44:27.968064Z","epoch_age_seconds":69441,"freshness":"FRESH","line1":"1 59216U 24046R   26145.03087926  .00001908  00000+0  76579-4 0  9997","line2":"2 59216  53.1591 161.0314 0001288  75.2984 284.8160 15.30180359124606","mean_motion":15.30180359,"eccentricity":0.0001288,"inclination_deg":53.1591,"raan_deg":161.0314,"arg_perigee_deg":75.2984,"mean_anomaly_deg":284.816,"bstar":7.6579e-5,"rev_number":12460,"period_min":94.106553618363,"perigee_km":474.39099523226,"apogee_km":476.15643383233,"semimajor_km":6853.4107145323,"source":"CELESTRAK","updated_at":"2026-05-25T13:38:18.867149Z"}}}